Canton, GA

6:25 PM EDT on September 24, 2017 (GMT -0400)
Canton

Weather History for KCNI - December, 2012

Change the Weather History Date:

Friday, December 14, 2012

  Actual Average (KMGE) Record (KMGE)
Temperature  
Mean Temperature 44 °F -  
Max Temperature 59 °F 50 °F 69 °F (2001)
Min Temperature 30 °F 33 °F 13 °F (2010)
Degree Days  
Heating Degree Days 20    
Moisture  
Dew Point 25 °F    
Average Humidity 56    
Maximum Humidity 93    
Minimum Humidity 17    
Precipitation  
Precipitation 0.00 in - - ()
Sea Level Pressure  
Sea Level Pressure 30.29 in    
Wind  
Wind Speed 1 mph (East)    
Max Wind Speed 7 mph    
Max Gust Speed -    
Visibility 9 miles    
Events      
Averages and records for this station are not official NWS values.
T = Trace of Precipitation, MM = Missing Value Source: NWS Daily Summary

Daily Weather History Graph

Daily Weather History Graph

Search for Another Location

Airport or City:

Trip Planner

Search our weather history database for the weather conditions in past years. The results will help you decide how hot, cold, wet, or windy it might be!

Date:

Astronomy

Dec. 14, 2012 Rise Set
Actual Time 7:36 AM EST 5:29 PM EST
Civil Twilight 7:08 AM EST 5:56 PM EST
Nautical Twilight 6:36 AM EST 6:28 PM EST
Astronomical Twilight 6:06 AM EST 6:58 PM EST
Moon 8:42 AM EST (12/14) 7:17 PM EST (12/14)
Length of Visible Light 10h 48m
Length of Day
9h 52m
Waxing Crescent, 3% of the Moon is Illuminated
Dec 14
Waxing Crescent
Dec 20
First Quarter
Dec 28
Full
Jan 4
Last Quarter
Jan 11
New

Hourly Weather History & Observations

Time (EST) Temp. Windchill Dew Point Humidity Pressure Visibility Wind Dir Wind Speed Gust Speed Precip Events Conditions
12:15 AM 37.4 °F 34.9 °F 32.0 °F 81% 30.33 in 10.0 mi ENE 3.5 mph - N/A   Clear
1:15 AM 35.6 °F - 32.0 °F 87% 30.32 in 10.0 mi Calm Calm - N/A   Clear
1:35 AM 35.6 °F - 32.0 °F 87% 30.32 in 10.0 mi Calm Calm - N/A   Clear
1:55 AM 35.6 °F - 30.2 °F 81% 30.33 in 5.0 mi Calm Calm - N/A   Haze
2:15 AM 35.6 °F - 32.0 °F 87% 30.33 in 10.0 mi Calm Calm - N/A   Clear
2:35 AM 35.6 °F - 30.2 °F 81% 30.33 in 10.0 mi Calm Calm - N/A   Clear
2:55 AM 33.8 °F - 30.2 °F 87% 30.33 in 4.0 mi Calm Calm - N/A   Haze
3:15 AM 33.8 °F - 30.2 °F 87% 30.33 in 4.0 mi Calm Calm - N/A   Haze
3:55 AM 33.8 °F - 30.2 °F 87% 30.34 in 7.0 mi Calm Calm - N/A   Clear
4:15 AM 32.0 °F - 28.4 °F 87% 30.35 in 3.0 mi Calm Calm - N/A   Haze
4:55 AM 32.0 °F - 28.4 °F 87% 30.34 in 5.0 mi Calm Calm - N/A   Haze
5:15 AM 32.0 °F - 28.4 °F 87% 30.33 in 7.0 mi Calm Calm - N/A   Clear
5:35 AM 32.0 °F - 28.4 °F 87% 30.34 in 5.0 mi Calm Calm - N/A   Clear
5:55 AM 32.0 °F - 26.6 °F 80% 30.34 in 5.0 mi Calm Calm - N/A   Haze
6:15 AM 32.0 °F - 26.6 °F 80% 30.36 in 4.0 mi Calm Calm - N/A   Haze
6:35 AM 32.0 °F - 28.4 °F 87% 30.36 in 5.0 mi Calm Calm - N/A   Haze
6:55 AM 30.2 °F 26.7 °F 26.6 °F 86% 30.36 in 7.0 mi NNE 3.5 mph - N/A   Clear
7:15 AM 30.2 °F 26.7 °F 26.6 °F 86% 30.36 in 5.0 mi NNE 3.5 mph - N/A   Clear
7:35 AM 30.2 °F 26.7 °F 26.6 °F 86% 30.36 in 7.0 mi NNE 3.5 mph - N/A   Clear
7:55 AM 32.0 °F - 28.4 °F 87% 30.36 in 7.0 mi Calm Calm - N/A   Clear
8:15 AM 32.0 °F - 30.2 °F 93% 30.36 in 7.0 mi Calm Calm - N/A   Clear
8:35 AM 32.0 °F - 28.4 °F 87% 30.37 in 5.0 mi Calm Calm - N/A   Clear
8:55 AM 33.8 °F - 30.2 °F 87% 30.37 in 7.0 mi Calm Calm - N/A   Clear
9:15 AM 35.6 °F - 32.0 °F 87% 30.37 in 10.0 mi Calm Calm - N/A   Clear
9:55 AM 42.8 °F - 28.4 °F 57% 30.37 in 10.0 mi Calm Calm - N/A   Clear
10:15 AM 41.0 °F 38.0 °F 26.6 °F 57% 30.36 in 10.0 mi East 4.6 mph - N/A   Clear
10:35 AM 44.6 °F 40.7 °F 23.0 °F 43% 30.36 in 10.0 mi ESE 6.9 mph - N/A   Clear
10:55 AM 44.6 °F 43.1 °F 24.8 °F 46% 30.36 in 10.0 mi East 3.5 mph - N/A   Clear
11:15 AM 48.2 °F - 23.0 °F 37% 30.36 in 10.0 mi Calm Calm - N/A   Clear
11:55 AM 51.8 °F - 21.2 °F 30% 30.33 in 10.0 mi ENE 3.5 mph - N/A   Clear
12:15 PM 51.8 °F - 21.2 °F 30% 30.31 in 10.0 mi East 3.5 mph - N/A   Clear
12:35 PM 51.8 °F - 21.2 °F 30% 30.31 in 10.0 mi Calm Calm - N/A   Clear
12:55 PM 53.6 °F - 19.4 °F 26% 30.30 in 10.0 mi Calm Calm - N/A   Clear
1:15 PM 55.4 °F - 19.4 °F 25% 30.28 in 10.0 mi ENE 3.5 mph - N/A   Clear
1:35 PM 55.4 °F - 19.4 °F 25% 30.27 in 10.0 mi ESE 4.6 mph - N/A   Clear
1:55 PM 55.4 °F - 19.4 °F 25% 30.26 in 10.0 mi ESE 5.8 mph - N/A   Clear
2:15 PM 55.4 °F - 19.4 °F 25% 30.26 in 10.0 mi Calm Calm - N/A   Clear
2:35 PM 55.4 °F - 17.6 °F 23% 30.25 in 10.0 mi Calm Calm - N/A   Clear
2:55 PM 57.2 °F - 17.6 °F 21% 30.24 in 10.0 mi Calm Calm - N/A   Clear
3:15 PM 59.0 °F - 15.8 °F 19% 30.23 in 10.0 mi Calm Calm - N/A   Clear
3:35 PM 59.0 °F - 17.6 °F 20% 30.23 in 10.0 mi East 3.5 mph - N/A   Clear
3:55 PM 59.0 °F - 14.0 °F 17% 30.23 in 10.0 mi ESE 3.5 mph - N/A   Clear
4:15 PM 59.0 °F - 17.6 °F 20% 30.23 in 10.0 mi ESE 3.5 mph - N/A   Clear
4:35 PM 57.2 °F - 17.6 °F 21% 30.23 in 10.0 mi Calm Calm - N/A   Clear
4:55 PM 55.4 °F - 19.4 °F 25% 30.23 in 10.0 mi East 3.5 mph - N/A   Clear
5:15 PM 55.4 °F - 19.4 °F 25% 30.22 in 10.0 mi Calm Calm - N/A   Clear
5:35 PM 53.6 °F - 21.2 °F 28% 30.21 in 10.0 mi Calm Calm - N/A   Clear
5:55 PM 53.6 °F - 23.0 °F 30% 30.22 in 10.0 mi East 3.5 mph - N/A   Clear
6:15 PM 51.8 °F - 23.0 °F 33% 30.23 in 10.0 mi Calm Calm - N/A   Clear
6:35 PM 51.8 °F - 24.8 °F 35% 30.23 in 10.0 mi Calm Calm - N/A   Clear
6:55 PM 50.0 °F - 24.8 °F 37% 30.23 in 10.0 mi Calm Calm - N/A   Clear
7:35 PM 50.0 °F - 24.8 °F 37% 30.23 in 10.0 mi Calm Calm - N/A   Clear
7:55 PM 46.4 °F - 26.6 °F 46% 30.23 in 10.0 mi Calm Calm - N/A   Clear
8:35 PM 42.8 °F - 28.4 °F 57% 30.25 in 10.0 mi Calm Calm - N/A   Clear
8:55 PM 44.6 °F - 28.4 °F 53% 30.26 in 10.0 mi Calm Calm - N/A   Clear
9:15 PM 44.6 °F 43.1 °F 26.6 °F 49% 30.25 in 10.0 mi ENE 3.5 mph - N/A   Clear
9:55 PM 44.6 °F - 28.4 °F 53% 30.23 in 10.0 mi Calm Calm - N/A   Clear
10:15 PM 44.6 °F 43.1 °F 28.4 °F 53% 30.23 in 10.0 mi East 3.5 mph - N/A   Clear
10:35 PM 42.8 °F 40.1 °F 28.4 °F 57% 30.22 in 10.0 mi ENE 4.6 mph - N/A   Clear
10:55 PM 42.8 °F 40.1 °F 28.4 °F 57% 30.21 in 10.0 mi ENE 4.6 mph - N/A   Clear
11:15 PM 42.8 °F 41.1 °F 28.4 °F 57% 30.21 in 10.0 mi ENE 3.5 mph - N/A   Clear
11:35 PM 42.8 °F - 28.4 °F 57% 30.22 in 10.0 mi Calm Calm - N/A   Clear
11:55 PM 42.8 °F 41.1 °F 28.4 °F 57% 30.22 in 10.0 mi SE 3.5 mph - N/A   Clear